User: anonymous   Login
Location: Unspecified
(0.0000°N, 0.0000°E)
Time: 11:12:01
(UTC+02:00)
Language:

Cosmos 1295 Rocket - Orbit

View from above orbital plane
View from above orbital plane
View from above satellite
View from above satellite

Ground track
Ground track

The orbit data is extracted from the following two-line orbital elements,

1 12682U 81077B   15143.80825757  .00000050  00000-0  34526-4 0  9997
2 12682 082.9185 221.0833 0032699 303.8577 195.7142 13.78500263698798
Epoch (UTC): 23 May 2015 19:23:53
Eccentricity: 0.0032699
inclination: 82.9185°
perigee height: 945 km
apogee height: 993 km
right ascension of ascending node: 221.0833°
argument of perigee: 303.8577°
revolutions per day: 13.78500263
mean anomaly at epoch: 195.7142°
orbit number at epoch: 69879

The dashed part of the orbit path shows where the satellite is in the earth's shadow,  

DLR